This is the latest recevied weather packets stored in our database for station/object N9EA. If no packets are shown the sender has not sent any weather packets the latest 10 day(s).
| Time | Temp. | Humidity | Pressure | Rain* | Wind** | Luminosity | Snow |
|---|---|---|---|---|---|---|---|
| 1777559925 | 13.33° C | 49% | 1015.8 hPa | 0 mm | - | 291 W/m² | - |
| 1777559620 | 12.78° C | 49% | 1015.8 hPa | 0 mm | - | 474 W/m² | - |
| 1777559318 | 12.22° C | 51% | 1015.6 hPa | 0 mm | - | 360 W/m² | - |
| 1777559014 | 12.22° C | 50% | 1015.9 hPa | 0 mm | - | 211 W/m² | - |
| 1777558710 | 12.22° C | 49% | 1016 hPa | 0 mm | - | 202 W/m² | - |
| 1777558406 | 12.22° C | 47% | 1015.9 hPa | 0 mm | - | 213 W/m² | - |
| 1777558102 | 12.22° C | 49% | 1016.2 hPa | 0 mm | - | 477 W/m² | - |
| 1777557799 | 11.67° C | 52% | 1016.2 hPa | 0 mm | - | 196 W/m² | - |
| 1777557495 | 12.22° C | 51% | 1016.2 hPa | 0 mm | - | 182 W/m² | - |
| 1777557192 | 12.22° C | 51% | 1016 hPa | 0 mm | - | 178 W/m² | - |
| 1777556888 | 12.22° C | 49% | 1016.2 hPa | 0 mm | - | 151 W/m² | - |
| 1777556584 | 12.78° C | 50% | 1016.2 hPa | 0 mm | - | 160 W/m² | - |
| 1777556283 | 12.78° C | 49% | 1015.9 hPa | 0 mm | - | 184 W/m² | - |
| 1777555980 | 11.67° C | 50% | 1016.1 hPa | 0 mm | - | 376 W/m² | - |
| 1777555675 | 11.11° C | 52% | 1016.2 hPa | 0 mm | - | 257 W/m² | - |
| 1777555372 | 11.11° C | 53% | 1016.3 hPa | 0 mm | - | 227 W/m² | - |
| 1777555068 | 10.56° C | 55% | 1016.3 hPa | 0 mm | - | 214 W/m² | - |
| 1777554765 | 10.56° C | 56% | 1016.3 hPa | 0 mm | - | 199 W/m² | - |
| 1777554463 | 10.56° C | 58% | 1016.4 hPa | 0 mm | - | 187 W/m² | - |
| 1777554159 | 10° C | 60% | 1016.3 hPa | 0 mm | - | 176 W/m² | - |
| 1777553856 | 9.44° C | 62% | 1016.4 hPa | 0 mm | - | 164 W/m² | - |
| 1777553552 | 9.44° C | 63% | 1016.7 hPa | 0 mm | - | 151 W/m² | - |
| 1777553247 | 8.89° C | 63% | 1016.5 hPa | 0 mm | - | 139 W/m² | - |
| 1777552939 | 8.33° C | 63% | 1016.4 hPa | 0 mm | - | 129 W/m² | - |
| 1777552639 | 7.78° C | 64% | 1016.7 hPa | 0 mm | - | 118 W/m² | - |
* Rain latest hour (hover to see other rain measurements)
** Current wind speed in m/s (hover to see current wind gust speed)